Regional Weather Roundup
Issued by NWS

Home | Current Version | Previous Version | Graphics & Text | Print | Product List | Glossary On
Versions: 1 2 3 4 5 6 7 8 9 10 11 12 13 14 15 16 17 18 19 20 21 22 23 24 25 26 27 28 29 30 31 32 33 34 35 36 37 38 39 40 41 42 43 44 45 46 47 48 49 50
000
ASUS45 KPSR 271210
RWRAZ

ARIZONA HOURLY REGIONAL WEATHER ROUNDUP
NATIONAL WEATHER SERVICE PHOENIX AZ
500 AM MST TUE JUN 27 2017

NOTE: FAIR INDICATES FEW OR NO CLOUDS BELOW 12,000 FEET WITH NO
SIGNIFICANT WEATHER AND/OR OBSTRUCTIONS TO VISIBILITY.

AZZ001>003-036-271300-
NORTHWEST ARIZONA

CITY           SKY/WX    TMP DP  RH WIND       PRES   REMARKS
BULLHEAD CITY  CLEAR     90  30  12 S7        29.73R
KINGMAN        CLEAR     72  25  17 S12       29.94R
6HR MIN TEMP:  68; 6HR MAX TEMP:  84;

$$

AZZ004>008-015-016-018-271300-
NORTH CENTRAL ARIZONA

CITY           SKY/WX    TMP DP  RH WIND       PRES   REMARKS
GRAND CANYON   CLEAR     42  24  49 CALM      30.19S
6HR MIN TEMP:  40; 6HR MAX TEMP:  55;

PRESCOTT       CLEAR     67  27  22 S10       30.09S
6HR MIN TEMP:  64; 6HR MAX TEMP:  77;

FLAGSTAFF      CLEAR     46  26  45 CALM      30.24R
6HR MIN TEMP:  45; 6HR MAX TEMP:  66;

PAYSON         CLEAR     66  34  30 CALM      30.15R
PAGE           CLEAR     75  26  16 SE5       29.97R
6HR MIN TEMP:  73; 6HR MAX TEMP:  89;

$$

AZZ009>014-017-271300-
NORTHEAST ARIZONA

CITY           SKY/WX    TMP DP  RH WIND       PRES   REMARKS
WINSLOW        CLEAR     60  31  33 SE7       30.09R
6HR MIN TEMP:  60; 6HR MAX TEMP:  73;

SAINT JOHNS    PTCLDY    65  40  39 E5        30.17R
6HR MIN TEMP:  65; 6HR MAX TEMP:  79;

WINDOW ROCK    CLEAR     54  35  48 CALM      30.23S
6HR MIN TEMP:  52; 6HR MAX TEMP:  77;

SHOW LOW       PTCLDY    64  39  39 S9        30.24S
$$

AZZ540-542>544-546-548-271300-
GREATER PHOENIX AREA

CITY           SKY/WX    TMP DP  RH WIND       PRES   REMARKS
PHOENIX        PTCLDY    91  36  14 SE6       29.79R
6HR MIN TEMP:  91; 6HR MAX TEMP: 100;

BUCKEYE        CLEAR     79  34  19 NE5       29.80R
LUKE AFB       CLEAR     88  36  16 SW10      29.78R
6HR MIN TEMP:  86; 6HR MAX TEMP:  97;

DEER VALLEY    CLEAR     83  36  18 SE3       29.80S
6HR MIN TEMP:  80; 6HR MAX TEMP:  94;

SCOTTSDALE     CLEAR     85  41  21 SE7       29.83R
6HR MIN TEMP:  85; 6HR MAX TEMP:  97;

MESA-GATEWAY   CLEAR     81  46  30 E7        29.84R
$$

AZZ539-553-271300-
SOUTHWEST MARICOPA COUNTY AND PINAL COUNTY

CITY           SKY/WX    TMP DP  RH WIND       PRES   REMARKS
CASA GRANDE    CLEAR     82  38  20 CALM      29.85R
6HR MIN TEMP:  81; 6HR MAX TEMP:  94;

GILA BEND      FAIR      89  37  16 S12       29.78S
6HR MIN TEMP:  89; 6HR MAX TEMP: 101;

$$

AZZ503-504-507>509-271300-
SOUTHEAST ARIZONA

CITY           SKY/WX    TMP DP  RH WIND       PRES   REMARKS
TUCSON         CLEAR     82  54  37 S8        29.98R
6HR MIN TEMP:  81; 6HR MAX TEMP:  90;

DAVIS-MONTHAN  CLEAR     80  54  40 S6        29.97R
6HR MIN TEMP:  79; 6HR MAX TEMP:  88;

NOGALES        CLEAR     70  59  68 CALM      30.09R
6HR MIN TEMP:  68; 6HR MAX TEMP:  73;

SIERRA VISTA   CLEAR     71  45  38 CALM      30.14R
6HR MIN TEMP:  70; 6HR MAX TEMP:  81;

DOUGLAS        CLEAR     70  57  63 E10       30.10R
6HR MIN TEMP:  70; 6HR MAX TEMP:  78;

SAFFORD        CLEAR     76  48  37 E8        29.99R
6HR MIN TEMP:  76; 6HR MAX TEMP:  84; 6HR PCP: TRACE;

$$

AZZ532-271300-
SOUTHWEST ARIZONA

CITY           SKY/WX    TMP DP  RH WIND       PRES   REMARKS
YUMA           CLEAR     82  37  20 SW6       29.75S
6HR MIN TEMP:  81; 6HR MAX TEMP:  96;

$$

CAZ041-043-047-048-061-525>527-560>570-271300-
SOUTHERN CALIFORNIA

CITY           SKY/WX    TMP DP  RH WIND       PRES   REMARKS
DOWNTOWN L.A.  CLEAR     67  56  67 CALM      29.86R
6HR MIN TEMP:  66; 6HR MAX TEMP:  73;

L.A. AIRPORT   CLEAR     64  60  87 CALM      29.86S
6HR MIN TEMP:  63; 6HR MAX TEMP:  70;

SAN DIEGO      PTCLDY    67  65  93 N5        29.88S
6HR MIN TEMP:  67; 6HR MAX TEMP:  72;

BURBANK        CLEAR     69  42  37 CALM      29.87S
6HR MIN TEMP:  69; 6HR MAX TEMP:  81;

ONTARIO        CLEAR     69  53  56 E3        29.89S
6HR MIN TEMP:  68; 6HR MAX TEMP:  80;

RIVERSIDE      CLEAR     67  48  50 NE3       29.89S
6HR MIN TEMP:  66; 6HR MAX TEMP:  80;

PALM SPRINGS   CLEAR     85  34  16 CALM      29.77R
6HR MIN TEMP:  78; 6HR MAX TEMP:  99;

EL CENTRO NAS  CLEAR     78  22  12 N6        29.75S
6HR MIN TEMP:  78; 6HR MAX TEMP:  94;

IMPERIAL       CLEAR     80  34  19 NW5       29.72F
6HR MIN TEMP:  77; 6HR MAX TEMP:  94;

BLYTHE         CLEAR     80  31  16 N7        29.74R
6HR MIN TEMP:  80; 6HR MAX TEMP: 100;

NEEDLES        CLEAR     96  25   8 S12G18    29.75S
6HR MIN TEMP:  91; 6HR MAX TEMP: 103;

$$

NVZ020-UTZ003-271300-
SOUTHERN NEVADA-UTAH

CITY           SKY/WX    TMP DP  RH WIND       PRES   REMARKS
LAS VEGAS      CLEAR     83  21  10 S6        29.80R
6HR MIN TEMP:  83; 6HR MAX TEMP:  95;

SALT LAKE CITY PTCLDY    75  44  33 N6        29.89R
6HR MIN TEMP:  73; 6HR MAX TEMP:  86;

$$

NMZ009-TXZ055-271300-
NEW MEXICO-WEST TEXAS

CITY           SKY/WX    TMP DP  RH WIND       PRES   REMARKS
ALBUQUERQUE    CLOUDY    65  53  65 VRB3      30.20R
6HR MIN TEMP:  63; 6HR MAX TEMP:  69; 6HR PCP: TRACE;

EL PASO        PTCLDY    71  61  70 CALM      30.14R
6HR MIN TEMP:  69; 6HR MAX TEMP:  80; 6HR PCP: TRACE;

$$


........................KEY........................
SKY/WX - SKY CONDITION/WEATHER
TMP    - TEMPERATURE IN FAHRENHEIT
DP     - DEW POINT IN FAHRENHEIT
RH     - RELATIVE HUMIDITY IN PERCENT
WIND   - DIRECTION AND SPEED IN MILES PER HOUR (MPH)
VRB    - VARIABLE WIND DIRECTION
PRES   - MEAN SEA LEVEL PRESSURE IN INCHES OF MERCURY
         F - FALLING PRESSURE   R - RISING PRESSURE
         S - STEADY PRESSURE
VSB    - VISIBILITY IN MILES
HX     - HEAT INDEX IN FAHRENHEIT
WCI    - WIND CHILL INDEX IN FAHRENHEIT
TC     - TEMPERATURE IN CELSIUS WHICH IS ALSO KNOWN AS
         TEMPERATURE IN CENTIGRADE
AFB    - AIR FORCE BASE
         LUKE AFB IS LUKE AIR FORCE BASE
         DAVIS-MONTHAN IS DAVIS-MONTHAN AIR FORCE BASE
NAS    - NAVAL AIR STATION
         EL CENTRO NAS IS EL CENTRO NAVAL AIR STATION
N/A    - NOT AVAILABLE




USA.gov is the U.S. government's official web portal to all federal, state and local government web resources and services.